| time (UTC) | temp F | wind direction | speed MPH | gust MPH | rain 1hr in | rain 24hr in | rain mn in | humidity % | barometer mb |
| 20260510170031 | 67 | 51 | 5.0 | 12.0 | 0.00 | 0.03 | 0.03 | 50 | 1017.1 |
| 20260510164539 | 67 | 42 | 4.0 | 10.0 | 0.00 | 0.03 | 0.03 | 50 | 1016.8 |
| 20260510163030 | 67 | 28 | 3.0 | 9.0 | 0.00 | 0.03 | 0.03 | 52 | 1016.7 |
| 20260510161531 | 66 | 24 | 5.0 | 11.0 | 0.00 | 0.03 | 0.03 | 53 | 1016.8 |
| 20260510160032 | 66 | 44 | 5.0 | 10.0 | 0.00 | 0.03 | 0.03 | 52 | 1016.8 |
| 20260510154544 | 65 | 352 | 6.0 | 13.0 | 0.00 | 0.03 | 0.03 | 53 | 1016.8 |
| 20260510153028 | 64 | 22 | 5.0 | 11.0 | 0.00 | 0.03 | 0.03 | 53 | 1016.8 |
| 20260510151530 | 64 | 45 | 8.0 | 14.0 | 0.00 | 0.03 | 0.03 | 53 | 1016.7 |
| 20260510150032 | 64 | 5 | 7.0 | 14.0 | 0.00 | 0.03 | 0.03 | 55 | 1016.6 |
| 20260510144540 | 63 | 41 | 4.0 | 11.0 | 0.00 | 0.03 | 0.03 | 59 | 1016.3 |
| 20260510143030 | 62 | 84 | 5.0 | 14.0 | 0.00 | 0.03 | 0.03 | 59 | 1016.1 |
| 20260510141530 | 62 | 56 | 6.0 | 12.0 | 0.00 | 0.03 | 0.03 | 60 | 1016.2 |
| 20260510140031 | 61 | 69 | 4.0 | 11.0 | 0.00 | 0.03 | 0.03 | 63 | 1016.0 |
| 20260510134530 | 61 | 44 | 4.0 | 8.0 | 0.00 | 0.03 | 0.03 | 64 | 1015.8 |
| 20260510133030 | 60 | 62 | 3.0 | 10.0 | 0.00 | 0.03 | 0.03 | 67 | 1015.7 |
| 20260510131542 | 59 | 34 | 4.0 | 10.0 | 0.00 | 0.03 | 0.03 | 68 | 1015.3 |
| 20260510130033 | 58 | 34 | 2.0 | 10.0 | 0.00 | 0.03 | 0.03 | 71 | 1014.8 |
| 20260510124530 | 58 | 23 | 3.0 | 7.0 | 0.00 | 0.03 | 0.03 | 73 | 1014.7 |
| 20260510123032 | 57 | 20 | 3.0 | 10.0 | 0.00 | 0.03 | 0.03 | 77 | 1014.5 |
| 20260510121536 | 55 | 26 | 4.0 | 10.0 | 0.00 | 0.03 | 0.03 | 80 | 1014.1 |
| 20260510120035 | 55 | 31 | 2.0 | 8.0 | 0.00 | 0.03 | 0.03 | 82 | 1013.7 |
| 20260510114535 | 54 | 38 | 3.0 | 8.0 | 0.01 | 0.03 | 0.03 | 83 | 1013.4 |
| 20260510113031 | 54 | 46 | 3.0 | 9.0 | 0.01 | 0.03 | 0.03 | 85 | 1013.1 |
| 20260510111531 | 54 | 26 | 2.0 | 8.0 | 0.02 | 0.03 | 0.03 | 87 | 1013.1 |
| 20260510110030 | 55 | 37 | 5.0 | 13.0 | 0.03 | 0.03 | 0.03 | 86 | 1013.0 |
| 20260510104532 | 55 | 9 | 5.0 | 9.0 | 0.02 | 0.04 | 0.02 | 88 | 1013.0 |
| 20260510103029 | 56 | 35 | 2.0 | 7.0 | 0.02 | 0.04 | 0.02 | 88 | 1013.1 |
| 20260510101532 | 56 | 0 | 0.0 | 2.0 | 0.01 | 0.03 | 0.01 | 86 | 1013.1 |
| 20260510100034 | 56 | 0 | 0.0 | 1.0 | 0.00 | 0.02 | 0.00 | 84 | 1012.7 |
| 20260510094535 | 56 | 328 | 1.0 | 4.0 | 0.00 | 0.07 | 0.00 | 83 | 1012.1 |
| 20260510093032 | 58 | 275 | 0.0 | 2.0 | 0.00 | 0.07 | 0.00 | 82 | 1012.1 |
| 20260510091533 | 56 | 0 | 0.0 | 1.0 | 0.00 | 0.07 | 0.00 | 85 | 1012.0 |
| 20260510090030 | 56 | 292 | 1.0 | 3.0 | 0.00 | 0.07 | 0.00 | 85 | 1011.7 |
| 20260510084535 | 56 | 0 | 0.0 | 3.0 | 0.00 | 0.10 | 0.00 | 84 | 1011.7 |
| 20260510083030 | 55 | 0 | 0.0 | 3.0 | 0.00 | 0.10 | 0.00 | 85 | 1011.6 |
| 20260510081532 | 54 | 0 | 0.0 | 1.0 | 0.00 | 0.10 | 0.00 | 84 | 1011.5 |
| 20260510080034 | 56 | 304 | 0.0 | 11.0 | 0.00 | 0.10 | 0.00 | 81 | 1011.4 |
| 20260510074536 | 57 | 241 | 3.0 | 7.0 | 0.00 | 0.13 | 0.00 | 81 | 1010.6 |
| 20260510073030 | 56 | 219 | 2.0 | 4.0 | 0.00 | 0.13 | 0.00 | 82 | 1010.5 |
| 20260510071532 | 56 | 219 | 2.0 | 5.0 | 0.00 | 0.13 | 0.00 | 81 | 1010.4 |
| 20260510070032 | 57 | 221 | 1.0 | 6.0 | 0.00 | 0.13 | 0.00 | 78 | 1010.5 |
| 20260510064545 | 57 | 227 | 2.0 | 6.0 | 0.00 | 0.16 | 0.00 | 80 | 1010.6 |
| 20260510063032 | 57 | 217 | 3.0 | 7.0 | 0.00 | 0.16 | 0.00 | 81 | 1010.6 |
| 20260510061533 | 57 | 223 | 3.0 | 5.0 | 0.00 | 0.16 | 0.00 | 80 | 1010.8 |
| 20260510060029 | 59 | 221 | 2.0 | 5.0 | 0.00 | 0.16 | 0.00 | 77 | 1010.9 |
| 20260510054532 | 59 | 222 | 3.0 | 4.0 | 0.00 | 0.16 | 0.00 | 77 | 1011.2 |
| 20260510053042 | 59 | 223 | 1.0 | 4.0 | 0.00 | 0.16 | 0.00 | 76 | 1010.9 |
| 20260510051545 | 59 | 224 | 1.0 | 5.0 | 0.00 | 0.16 | 0.00 | 76 | 1010.9 |
| 20260510050032 | 59 | 223 | 1.0 | 4.0 | 0.00 | 0.16 | 0.00 | 77 | 1010.9 |
| 20260510044530 | 58 | 223 | 2.0 | 4.0 | 0.00 | 0.16 | 0.00 | 77 | 1010.9 |
| 20260510043032 | 59 | 222 | 2.0 | 4.0 | 0.00 | 0.16 | 0.00 | 77 | 1011.0 |
| 20260510041534 | 60 | 223 | 2.0 | 5.0 | 0.00 | 0.16 | 0.00 | 74 | 1010.9 |
| 20260510040036 | 60 | 237 | 3.0 | 6.0 | 0.00 | 0.16 | 0.00 | 75 | 1010.9 |
| 20260510034532 | 60 | 221 | 3.0 | 5.0 | 0.00 | 0.16 | 0.16 | 74 | 1010.8 |
| 20260510033032 | 59 | 217 | 2.0 | 4.0 | 0.00 | 0.16 | 0.16 | 76 | 1010.8 |
| 20260510031533 | 60 | 219 | 2.0 | 4.0 | 0.00 | 0.16 | 0.16 | 77 | 1010.8 |
| 20260510030031 | 60 | 0 | 0.0 | 3.0 | 0.00 | 0.16 | 0.16 | 75 | 1010.7 |
| 20260510024532 | 61 | 219 | 2.0 | 4.0 | 0.00 | 0.16 | 0.16 | 73 | 1010.4 |
| 20260510023032 | 62 | 219 | 2.0 | 4.0 | 0.00 | 0.16 | 0.16 | 71 | 1010.3 |
| 20260510021534 | 62 | 219 | 1.0 | 3.0 | 0.00 | 0.16 | 0.16 | 71 | 1010.2 |
| 20260510020032 | 61 | 219 | 2.0 | 6.0 | 0.00 | 0.16 | 0.16 | 74 | 1009.9 |
| 20260510014532 | 61 | 227 | 2.0 | 4.0 | 0.00 | 0.16 | 0.16 | 73 | 1009.7 |
| 20260510013030 | 62 | 227 | 2.0 | 4.0 | 0.00 | 0.16 | 0.16 | 73 | 1009.5 |
| 20260510011531 | 63 | 227 | 2.0 | 4.0 | 0.00 | 0.16 | 0.16 | 72 | 1009.3 |
| 20260510010030 | 64 | 0 | 0.0 | 3.0 | 0.00 | 0.16 | 0.16 | 69 | 1009.3 |
| 20260510004532 | 66 | 228 | 1.0 | 4.0 | 0.00 | 0.16 | 0.16 | 62 | 1009.0 |
| 20260510003031 | 68 | 219 | 2.0 | 5.0 | 0.00 | 0.16 | 0.16 | 58 | 1008.7 |
| 20260510001530 | 70 | 230 | 2.0 | 5.0 | 0.00 | 0.16 | 0.16 | 56 | 1008.4 |
| 20260510000034 | 71 | 232 | 3.0 | 9.0 | 0.00 | 0.16 | 0.16 | 54 | 1008.3 |
| 20260509234533 | 71 | 212 | 5.0 | 10.0 | 0.00 | 0.16 | 0.16 | 53 | 1008.0 |
| 20260509233032 | 72 | 229 | 6.0 | 12.0 | 0.00 | 0.16 | 0.16 | 52 | 1007.7 |
| 20260509231534 | 73 | 233 | 6.0 | 12.0 | 0.00 | 0.16 | 0.16 | 53 | 1007.7 |
| 20260509230030 | 73 | 219 | 3.0 | 10.0 | 0.00 | 0.16 | 0.16 | 52 | 1007.8 |
| 20260509224530 | 74 | 215 | 3.0 | 13.0 | 0.00 | 0.16 | 0.16 | 50 | 1007.7 |
| 20260509223032 | 74 | 221 | 5.0 | 13.0 | 0.00 | 0.16 | 0.16 | 51 | 1007.8 |
| 20260509221529 | 74 | 207 | 7.0 | 15.0 | 0.00 | 0.16 | 0.16 | 50 | 1007.7 |
| 20260509220040 | 74 | 228 | 7.0 | 15.0 | 0.00 | 0.16 | 0.16 | 51 | 1007.7 |
| 20260509214533 | 74 | 222 | 7.0 | 16.0 | 0.00 | 0.16 | 0.16 | 52 | 1007.7 |
| 20260509213033 | 74 | 199 | 5.0 | 21.0 | 0.00 | 0.16 | 0.16 | 51 | 1007.7 |
| 20260509211534 | 74 | 218 | 7.0 | 12.0 | 0.00 | 0.16 | 0.16 | 51 | 1007.8 |
| 20260509210031 | 74 | 227 | 6.0 | 17.0 | 0.00 | 0.16 | 0.16 | 50 | 1007.9 |
| 20260509204530 | 74 | 165 | 7.0 | 18.0 | 0.00 | 0.16 | 0.16 | 55 | 1007.9 |
| 20260509203037 | 74 | 242 | 4.0 | 11.0 | 0.00 | 0.16 | 0.16 | 55 | 1008.0 |
| 20260509201532 | 74 | 211 | 5.0 | 16.0 | 0.00 | 0.16 | 0.16 | 59 | 1008.1 |
| 20260509200036 | 73 | 222 | 4.0 | 15.0 | 0.00 | 0.16 | 0.16 | 57 | 1008.3 |
| 20260509194545 | 72 | 178 | 5.0 | 19.0 | 0.00 | 0.16 | 0.16 | 61 | 1008.6 |
| 20260509193058 | 72 | 230 | 6.0 | 14.0 | 0.00 | 0.16 | 0.16 | 57 | 1008.5 |
| 20260509191534 | 71 | 215 | 8.0 | 13.0 | 0.00 | 0.16 | 0.16 | 62 | 1008.7 |
| 20260509190032 | 71 | 223 | 5.0 | 11.0 | 0.00 | 0.16 | 0.16 | 59 | 1008.9 |
| 20260509184536 | 71 | 211 | 4.0 | 13.0 | 0.00 | 0.16 | 0.16 | 62 | 1009.0 |
| 20260509183048 | 69 | 219 | 4.0 | 12.0 | 0.00 | 0.16 | 0.16 | 65 | 1009.1 |
| 20260509181531 | 70 | 204 | 5.0 | 15.0 | 0.00 | 0.16 | 0.16 | 64 | 1009.1 |
| 20260509180031 | 68 | 229 | 2.0 | 13.0 | 0.00 | 0.16 | 0.16 | 64 | 1009.1 |
| 20260509174544 | 69 | 214 | 4.0 | 15.0 | 0.00 | 0.16 | 0.16 | 67 | 1009.2 |
| 20260509173030 | 69 | 236 | 4.0 | 14.0 | 0.00 | 0.16 | 0.16 | 65 | 1009.1 |
| 20260509171540 | 67 | 232 | 7.0 | 15.0 | 0.00 | 0.16 | 0.16 | 69 | 1009.2 |